O3B FM6

Last updated on Fri Dec 29 2023 00:03:04 GMT+0000 (Greenwich Mean Time)

1 40081U 14038C 23361.77283542 -.00000024 00000+0 00000+0 0 9997 2 40081 0.0546 6.5294 0002675 268.9340 84.5044 5.00115250172686
UTC large
Height (km)
Speed (km/s)
/
Latitude / Longitude
Inclination (degrees)
Orbital Period (minutes)
Azimuth
Elevation
Range (km)
Doppler Factor

Next 0 passes for location: London (51.5072 / 0.1276)

Sorry there are no passes over London.